Theta_e
325 322 323 325 324 324 324 325 326 327 325 326 326 326 329 343 342 339 337 334 331 331 332 332 331 330 330 328 328 328 327 327 326 322 321 322 322 321 321 321 321 321 322 323
324 325 325 325 326 326 328 327 327 326 326 324 324 327 333 333 331 333 335 335 332 329 329 329 329 328 328 328 326 325 324 322 321 322 322 322 323 323 323 323 323 324 323 323
326 325 326 326 325 327 326 326 326 326 326 325 326 332 334 332 337 334 333 333 332 331 328 328 328 327 327 325 323 323 322 322 322 321 322 321 321 322 322 321 323 323 322 322
326 326 326 326 328 326 326 327 327 327 324 323 325 326 333 337 336 332 329 327 326 327 326 326 325 324 325 325 324 322 320 321 320 319 319 318 317 317 318 318 318 319 319 317
328 326 325 327 326 327 326 325 324 324 322 322 324 331 335 338 337 332 328 324 321 323 326 326 325 324 324 323 321 319 319 317 316 316 315 314 314 314 314 314 313 313 314 315
328 329 327 328 329 327 325 324 324 323 322 325 328 333 342 341 335 331 325 322 320 321 321 319 316 316 316 316 316 316 316 315 315 315 314 314 315 315 315 313 314 314 315 313
331 331 331 330 330 326 325 322 323 325 325 326 326 340 338 334 332 327 323 319 318 317 317 317 316 316 316 316 316 315 315 314 314 314 314 314 313 311 313 313 313 313 312 311
330 335 331 331 329 327 325 326 323 329 329 327 325 338 336 329 325 322 320 318 317 317 317 317 317 314 315 315 314 314 313 314 313 312 313 313 311 311 310 311 310 310 310 311
328 331 329 328 327 325 327 326 323 327 326 323 335 336 332 329 326 323 320 318 318 318 317 317 316 314 315 315 314 314 313 312 311 309 309 309 309 309 310 310 311 311 311 311
329 330 329 327 324 325 328 326 324 324 328 327 329 333 335 333 328 324 320 319 318 318 318 316 315 315 313 313 313 312 310 309 309 309 309 309 309 309 310 309 310 309 309 309
330 329 329 325 325 326 326 327 326 326 327 326 327 333 329 327 325 323 320 319 319 318 318 316 316 314 313 312 311 309 306 307 308 309 309 309 309 307 309 309 308 308 308 308
328 328 329 325 324 326 326 330 327 326 327 323 323 328 325 325 324 321 320 320 320 318 318 317 314 312 312 310 308 308 309 308 308 308 308 308 307 308 308 308 308 308 309 308
327 328 328 328 326 325 325 325 328 327 324 328 329 332 322 323 324 323 321 320 319 318 316 315 312 311 308 308 308 309 309 308 308 308 308 307 307 307 307 307 307 308 307 307
330 329 330 329 326 324 325 324 327 327 327 330 331 328 326 324 324 322 321 318 317 316 312 312 310 309 309 309 309 309 308 308 307 306 307 307 307 306 307 307 308 308 307 307
328 331 328 324 323 323 323 329 328 331 330 331 327 325 323 322 322 322 319 317 314 312 312 310 309 309 309 308 308 308 307 307 307 307 307 307 307 306 306 306 306 305 306 306
328 326 328 326 325 328 329 328 330 328 328 326 324 323 322 321 320 318 316 314 312 311 310 310 309 308 307 308 308 308 307 308 308 308 307 307 306 306 306 305 305 305 304 304
327 328 328 329 330 329 329 329 327 326 324 323 323 323 321 321 317 314 313 312 311 311 310 308 307 308 307 307 308 308 307 308 307 307 306 306 305 304 304 304 304 303 303 302
327 328 328 329 327 329 329 325 325 324 322 320 320 319 317 316 314 313 312 311 310 309 307 307 308 308 308 307 307 306 308 307 307 307 306 305 304 303 302 302 301 301 301 302
327 328 327 326 327 330 328 327 324 325 324 321 321 316 315 316 313 312 311 310 309 308 307 307 308 308 308 308 307 307 307 306 307 306 306 304 302 301 301 302 300 300 301 301
330 328 326 328 329 331 328 324 323 323 324 321 319 315 315 315 312 310 310 309 308 308 308 308 308 308 307 307 307 306 305 305 305 306 304 302 302 302 302 301 301 302 303 303
327 326 328 327 328 328 325 322 322 322 321 319 316 315 314 313 312 310 309 309 308 308 308 308 308 307 306 305 304 304 305 305 304 304 302 302 302 302 301 302 303 304 304 304
328 327 326 325 326 328 323 323 323 321 318 316 314 314 313 311 310 309 308 308 308 309 307 306 306 305 305 304 304 303 303 303 303 302 302 302 302 302 302 303 303 304 305 305
327 325 324 325 325 324 322 321 319 318 315 314 314 313 312 311 309 308 309 308 308 308 308 306 305 305 305 305 305 303 303 303 304 302 302 302 302 303 304 305 305 306 306 306
326 324 325 324 324 323 321 319 318 316 314 313 313 312 311 310 309 309 309 307 309 307 307 306 305 306 306 305 305 304 304 304 303 303 304 306 306 305 305 305 306 306 306 306
325 325 325 324 322 321 319 319 317 314 313 312 312 311 310 309 309 308 308 308 308 308 307 306 306 307 307 306 305 304 304 303 304 305 305 306 306 306 306 306 306 305 306 307
325 324 323 323 323 322 320 318 316 314 313 312 311 310 309 308 309 307 308 309 308 306 306 307 306 306 306 305 305 306 305 304 305 306 306 306 307 307 308 308 308 307 308 307
Wind_Speed
21 4 5 3 5 7 7 9 8 5 5 3 4 5 18 39 37 34 34 34 35 23 19 20 18 17 18 16 13 9 6 3 2 5 7 3 16 16 14 12 12 14 16 19
6 6 3 7 5 4 10 10 8 9 10 8 8 8 25 28 24 33 29 29 33 24 22 19 17 18 17 13 12 9 6 5 8 5 7 12 13 10 10 11 12 13 14 17
6 4 6 4 7 6 8 9 9 8 9 8 5 10 14 12 30 36 33 32 28 24 21 21 20 16 15 14 10 8 6 3 1 5 8 9 10 13 14 20 15 14 14 13
2 7 3 6 10 9 6 7 7 9 8 6 1 4 9 8 20 25 25 22 21 21 20 19 18 16 13 15 9 10 10 5 10 10 12 15 13 10 16 17 18 17 18 19
5 9 10 9 6 5 4 9 8 8 11 8 18 6 4 6 10 12 18 16 13 18 21 15 14 11 10 9 10 10 10 12 11 12 16 22 20 17 20 21 20 14 13 12
3 14 6 4 8 12 10 13 12 7 4 4 6 4 3 2 4 7 14 11 15 20 20 19 18 16 16 15 16 16 16 15 22 20 20 13 15 17 20 20 17 13 9 12
9 10 6 13 11 11 9 6 4 6 5 5 7 9 5 12 14 15 13 13 17 17 17 14 14 17 14 14 14 14 15 21 19 17 15 16 17 17 17 20 19 17 16 16
4 4 4 6 2 4 5 4 4 3 4 9 12 4 5 13 22 17 14 13 15 15 14 12 12 17 13 12 12 17 17 15 15 18 16 15 20 19 20 17 16 17 16 13
5 1 9 10 6 5 1 2 5 2 4 4 4 5 6 12 15 20 13 14 13 11 10 5 11 11 11 13 12 16 13 18 24 23 19 19 18 19 20 17 18 17 17 16
6 3 7 11 10 11 2 3 5 4 3 4 3 6 5 8 9 10 10 14 15 10 5 11 11 10 19 19 10 13 19 21 19 20 20 21 22 23 18 18 20 20 18 20
6 5 7 7 6 6 6 5 4 2 3 3 1 4 7 11 8 6 6 11 7 4 4 9 9 13 8 7 16 21 18 17 19 20 21 21 22 27 24 14 14 15 14 14
5 2 2 6 8 7 4 2 2 3 4 2 3 3 6 5 7 10 10 8 5 3 4 6 11 9 13 21 16 18 17 18 19 22 23 21 21 23 20 14 14 15 14 13
5 4 4 8 8 11 7 7 6 1 5 6 6 2 3 6 6 3 6 3 3 5 5 8 7 15 19 14 16 14 18 18 17 19 18 22 22 22 20 18 13 11 13 12
7 4 2 2 6 8 12 9 13 6 4 1 3 9 3 3 4 5 8 10 3 6 12 13 17 14 13 10 11 17 20 17 22 21 18 23 21 22 17 14 12 11 13 14
5 1 6 8 9 12 12 13 13 9 3 2 6 3 4 5 10 11 15 7 13 16 14 13 13 11 13 17 16 19 18 22 18 20 18 17 19 18 17 14 13 12 12 11
3 3 6 6 9 11 13 14 11 13 11 11 9 3 7 4 22 19 17 18 17 14 13 14 13 15 18 18 18 19 19 18 19 18 18 18 14 16 16 15 13 14 12 9
2 3 4 4 9 9 10 5 12 15 9 5 5 2 3 12 18 20 18 16 13 14 13 16 17 16 19 20 16 17 17 16 16 16 16 17 18 20 19 17 15 14 12 10
3 3 2 3 7 5 3 11 17 15 10 9 7 11 17 20 21 16 13 12 15 14 17 17 15 15 17 17 18 17 15 17 17 16 15 16 22 20 19 18 17 14 14 12
7 3 2 3 3 4 5 6 5 4 3 5 6 14 17 11 20 14 14 11 12 16 15 15 12 13 13 14 17 16 15 19 17 15 15 21 21 18 19 20 19 15 14 15
7 7 4 2 2 3 2 7 14 7 2 10 10 14 14 12 5 8 13 13 16 16 15 15 15 14 14 16 17 15 15 16 15 14 20 17 20 19 19 20 22 22 20 17
0 3 3 2 2 2 6 19 10 6 3 14 16 14 17 12 13 13 11 14 14 11 12 14 15 15 16 17 19 16 14 17 15 15 15 18 18 20 20 17 18 19 19 18
3 2 2 3 4 1 10 8 5 5 14 14 14 12 14 18 14 11 13 11 11 11 16 18 13 15 15 16 16 16 16 14 13 14 16 16 18 20 19 17 15 16 17 20
3 4 2 3 3 12 17 21 17 13 13 11 10 10 12 15 11 12 10 8 11 9 13 17 13 15 16 16 16 18 17 16 16 18 19 18 18 19 19 18 19 20 20 21
3 4 3 5 7 12 18 14 13 10 9 11 10 9 12 13 10 11 6 10 11 13 15 16 17 17 18 17 16 15 16 15 18 23 24 25 25 23 21 19 20 18 17 18
3 4 4 6 10 14 12 12 10 10 9 12 10 14 12 7 9 10 9 11 10 10 12 12 14 13 15 16 17 18 15 14 18 19 18 18 18 18 19 20 20 21 21 22
4 2 3 2 10 8 13 8 11 11 10 10 10 10 8 7 9 8 8 7 9 10 10 10 11 12 15 15 16 17 15 13 16 16 16 16 16 16 17 20 21 21 24 36
Wind_Direction
270 170 266 246 29 348 339 344 33 108 38 62 8 317 15 94 93 94 94 100 97 90 94 93 105 123 130 125 133 138 153 185 191 180 205 255 330 318 306 311 307 300 295 297
300 127 51 354 326 343 30 34 359 347 2 21 346 51 60 63 77 82 84 87 89 93 93 87 89 93 109 116 120 121 121 144 189 245 272 339 346 353 339 318 305 297 288 291
65 95 44 301 333 58 49 28 2 339 327 333 322 64 65 66 72 65 63 79 83 95 96 102 108 110 121 117 111 82 82 62 336 343 323 330 329 323 322 322 306 310 308 296
21 104 63 10 47 42 8 356 339 325 353 300 44 270 54 70 67 66 63 63 78 94 93 104 108 116 100 106 93 67 58 46 7 2 349 341 322 324 320 314 317 315 309 309
296 47 2 38 27 11 328 25 356 321 306 287 276 92 191 100 76 76 74 60 71 84 94 85 73 66 56 47 46 39 34 36 27 15 357 339 328 320 313 313 313 301 291 299
343 63 29 43 1 32 16 3 336 331 300 16 7 93 37 5 103 82 70 63 70 71 72 74 67 57 48 37 27 16 6 0 343 342 354 343 319 319 319 320 311 312 305 313
42 35 22 31 351 12 3 2 343 10 353 251 353 64 82 56 71 92 93 78 77 78 75 66 55 35 29 23 21 16 5 2 3 350 336 321 320 328 319 316 316 315 311 293
34 46 304 176 91 251 293 81 129 278 277 281 321 58 87 87 87 85 105 121 104 93 81 65 38 13 17 13 15 357 1 0 348 342 340 336 335 328 326 323 321 323 317 311
3 261 4 26 343 323 325 20 269 191 302 29 128 91 116 115 121 129 156 140 107 90 92 66 11 8 16 20 11 6 2 354 344 347 346 343 344 338 334 327 325 320 321 316
324 344 30 360 341 354 2 336 19 2 334 313 83 83 356 122 121 130 138 124 118 120 88 8 16 27 10 13 38 5 0 360 351 359 3 352 340 334 335 318 337 330 314 331
26 65 324 2 351 11 1 22 30 68 1 242 335 82 50 83 93 107 100 115 121 96 352 6 27 14 39 18 353 355 4 5 2 356 356 351 350 340 310 342 334 339 344 343
331 126 4 301 315 53 30 233 337 144 255 255 137 89 358 42 113 139 160 166 123 52 5 37 16 33 355 352 8 11 357 350 358 350 349 348 348 353 2 349 347 346 340 352
323 7 12 341 347 359 345 327 357 9 32 55 347 96 75 76 114 86 185 129 83 89 41 7 19 5 6 14 12 355 354 347 341 335 338 345 348 346 333 333 332 335 332 341
38 14 64 266 293 319 323 327 66 76 76 343 345 97 85 212 136 200 152 129 63 38 58 16 2 20 10 14 6 351 346 342 346 349 349 356 350 350 356 354 345 332 316 310
93 357 339 319 312 308 323 50 51 75 204 67 145 126 216 205 207 205 148 136 81 50 24 22 31 45 8 1 356 358 349 360 354 348 352 351 351 1 2 17 18 21 20 14
34 296 315 310 309 334 67 35 102 58 67 117 136 160 236 293 70 68 61 60 53 29 38 54 20 4 5 4 358 353 355 348 343 345 349 357 7 359 358 5 6 354 4 359
83 6 346 296 334 320 48 11 87 84 59 101 61 190 238 87 69 63 60 48 39 47 45 17 9 4 354 358 358 350 346 346 354 3 8 6 0 350 344 345 342 338 343 347
94 4 339 316 17 56 21 8 98 83 57 48 23 49 65 100 86 72 46 51 67 33 14 8 4 349 347 354 352 359 358 7 6 7 359 355 354 353 352 351 353 359 12 15
131 76 355 86 284 129 55 11 14 104 52 18 14 49 41 89 82 64 65 79 40 12 11 4 11 356 3 356 352 355 2 1 3 9 10 358 5 19 20 17 28 41 49 53
86 109 108 3 352 62 359 344 343 93 42 335 57 52 41 46 63 74 71 38 33 18 12 7 357 345 341 352 357 358 6 3 8 19 8 12 27 23 24 49 60 65 50 45
17 29 65 64 165 99 338 10 39 64 285 63 67 61 72 78 101 94 42 39 21 20 1 1 1 18 23 6 358 18 33 26 19 25 36 34 34 41 54 66 58 39 46 52
86 73 350 9 31 229 4 34 75 127 62 58 61 61 87 102 85 58 47 26 21 21 9 15 21 22 22 22 26 32 31 27 39 52 43 44 53 54 61 62 53 51 55 61
51 148 171 121 165 115 85 92 91 85 70 63 66 73 106 94 72 55 45 39 30 28 10 15 32 44 32 29 35 45 50 52 43 62 59 60 64 61 59 60 60 67 67 68
128 195 106 94 74 74 102 96 92 88 90 74 70 95 92 95 65 52 78 44 34 26 33 40 49 46 38 39 44 52 49 51 76 77 70 63 56 57 60 63 67 68 66 66
50 133 124 93 118 122 109 112 114 100 98 96 100 92 96 59 66 67 56 51 50 38 26 46 37 31 31 42 61 53 53 62 84 73 62 55 48 49 47 54 56 62 65 70
67 2 106 150 150 138 137 121 122 101 85 109 117 88 60 51 82 71 53 48 32 40 60 36 28 29 40 63 69 51 56 67 74 64 63 56 50 48 60 69 74 74 82 98